Weather History for KICT - July, 2014

Change the Weather History Date:

Friday, July 4, 2014

  Actual Average Record
Temperature  
Mean Temperature 74 °F 80 °F  
Max Temperature 86 °F 92 °F 110 °F (1980)
Min Temperature 62 °F 69 °F 53 °F (1892)
Degree Days  
Heating Degree Days 0 0  
Month to date heating degree days 0 0  
Since 1 June heating degree days 0 6  
Since 1 July heating degree days 0 0  
Cooling Degree Days 9 15  
Month to date cooling degree days 30 60  
Year to date cooling degree days 639 525  
Since 1 June cooling degree days 372 389  
Growing Degree Days 24 (Base 50)    
Moisture  
Dew Point 61 °F    
Average Humidity 63    
Maximum Humidity 78    
Minimum Humidity 48    
Precipitation  
Precipitation 0.00 in 0.12 in 2.83 in (1958)
Month to date precipitation 1.12 0.50  
Year to date precipitation 17.65 17.56  
Snow  
Snow 0.00 in 0.00 in 0.00 in (2007)
Month to date snowfall 0.0 0.0  
Since 1 June snowfall 0.0 0.0  
Since 1 July snowfall 0.0 0.0  
Snow Depth 0.00 in    
Sea Level Pressure  
Sea Level Pressure 30.16 in    
Wind  
Wind Speed 11 mph (SE)    
Max Wind Speed 21 mph    
Max Gust Speed 26 mph    
Visibility 10 miles    
Events      
T = Trace of Precipitation, MM = Missing Value Source: NWS Daily Summary

Daily Weather History Graph

Daily Weather History Graph

Search for Another Location

Airport or City:

Trip Planner

Search our weather history database for the weather conditions in past years. The results will help you decide how hot, cold, wet, or windy it might be!

Date:

Astronomy

Jul. 04, 2014 Rise Set
Actual Time 6:13 AM CDT 8:54 PM CDT
Civil Twilight 5:42 AM CDT 9:25 PM CDT
Nautical Twilight 5:03 AM CDT 10:04 PM CDT
Astronomical Twilight 4:20 AM CDT 10:47 PM CDT
Moon 1:02 PM CDT 12:25 AM CDT
Length of Visible Light 15h 43m
Length of Day
14h 41m
Waxing Crescent, 42% of the Moon is Illuminated
Jul 4
Waxing Crescent
Jul 5
First Quarter
Jul 12
Full
Jul 18
Last Quarter
Jul 26
New

Hourly Weather History & Observations

Time (CDT) Temp. Heat Index Dew Point Humidity Pressure Visibility Wind Dir Wind Speed Gust Speed Precip Events Conditions
12:53 AM 68.0 °F - 57.0 °F 68% 30.21 in 10.0 mi SE 8.1 mph - N/A   Scattered Clouds
1:53 AM 66.9 °F - 57.0 °F 70% 30.20 in 10.0 mi SE 8.1 mph - N/A   Scattered Clouds
2:53 AM 66.0 °F - 57.0 °F 73% 30.19 in 10.0 mi ESE 9.2 mph - N/A   Partly Cloudy
3:53 AM 64.9 °F - 57.0 °F 75% 30.18 in 10.0 mi ESE 8.1 mph - N/A   Partly Cloudy
4:53 AM 64.9 °F - 55.9 °F 73% 30.19 in 10.0 mi SE 6.9 mph - N/A   Scattered Clouds
5:53 AM 64.9 °F - 55.9 °F 73% 30.19 in 10.0 mi SE 5.8 mph - N/A   Scattered Clouds
6:53 AM 64.0 °F - 57.0 °F 78% 30.20 in 10.0 mi SSE 5.8 mph - N/A   Scattered Clouds
7:53 AM 66.9 °F - 57.9 °F 73% 30.21 in 10.0 mi SE 4.6 mph - N/A   Scattered Clouds
8:53 AM 71.1 °F - 57.9 °F 63% 30.21 in 10.0 mi SSE 12.7 mph - N/A   Scattered Clouds
9:53 AM 73.9 °F - 59.0 °F 59% 30.22 in 10.0 mi South 12.7 mph - N/A   Scattered Clouds
10:53 AM 77.0 °F - 61.0 °F 58% 30.21 in 10.0 mi SSE 13.8 mph - N/A   Scattered Clouds
11:53 AM 79.0 °F - 61.0 °F 54% 30.20 in 10.0 mi SE 12.7 mph - N/A   Partly Cloudy
12:53 PM 81.0 °F 81.7 °F 61.0 °F 50% 30.18 in 10.0 mi SSE 12.7 mph - N/A   Partly Cloudy
1:53 PM 82.9 °F 84.0 °F 63.0 °F 51% 30.16 in 10.0 mi ESE 13.8 mph - N/A   Partly Cloudy
2:53 PM 84.0 °F 84.9 °F 63.0 °F 49% 30.14 in 10.0 mi SE 16.1 mph 24.2 mph N/A   Partly Cloudy
3:53 PM 84.9 °F 85.4 °F 62.1 °F 46% 30.13 in 10.0 mi SSE 15.0 mph 21.9 mph N/A   Partly Cloudy
4:53 PM 84.9 °F 85.9 °F 63.0 °F 48% 30.11 in 10.0 mi SSE 13.8 mph 23.0 mph N/A   Partly Cloudy
5:53 PM 84.9 °F 86.1 °F 64.0 °F 49% 30.10 in 10.0 mi SE 15.0 mph - N/A   Partly Cloudy
6:53 PM 84.0 °F 85.8 °F 64.9 °F 53% 30.09 in 10.0 mi SE 16.1 mph - N/A   Partly Cloudy
7:53 PM 82.9 °F 84.6 °F 64.9 °F 54% 30.08 in 10.0 mi SE 12.7 mph - N/A   Partly Cloudy
8:53 PM 80.1 °F 81.9 °F 64.9 °F 60% 30.08 in 10.0 mi SE 10.4 mph - N/A   Scattered Clouds
9:53 PM 79.0 °F - 64.9 °F 62% 30.08 in 10.0 mi SE 10.4 mph - N/A   Mostly Cloudy
10:53 PM 77.0 °F - 66.0 °F 69% 30.09 in 10.0 mi SE 11.5 mph - N/A   Mostly Cloudy
11:53 PM 75.9 °F - 66.0 °F 71% 30.09 in 10.0 mi SSE 11.5 mph - N/A   Mostly Cloudy